Home   Weather   35°40'N, 139°46'E   Past weeks
Flag for Japan

Past Weather in 35°40'N, 139°46'E, Japan — Yesterday and Last 2 Weeks

Now
75 °F

Mild.


Feels Like: 75 °F
Forecast: 80 / 72 °F
Wind: 7 mph from Northeast

Location: Tokyo

Current Time: Aug 26, 2019 at 2:08:54 am

Latest Report: Aug 26, 2019 at 1:00 am


Visibility: N/A

Pressure: 29.86 "Hg

Humidity: 85%

Dew Point: 70 °F

Location of 35°40'N, 139°46'ELocation

Past Weather in 35°40'N, 139°46'E — Graph

°F

35°40'N, 139°46'E Temperature Yesterday

Maximum temperature yesterday: 86 °F (at 1:00 pm)
Minimum temperature yesterday: 70 °F (at 6:00 am)
Average temperature yesterday: 79 °F

High & Low Weather Summary for the Past Weeks

 TemperatureHumidityPressure
High94 °F (Aug 18, 12:00 pm)100% (Aug 20, 8:00 am)29.90 "Hg (Aug 20, 8:00 am)
Low70 °F (Aug 25, 6:00 am)45% (Aug 11, 12:00 pm)29.41 "Hg (Aug 16, 12:00 pm)
Average82 °F83%29.73 "Hg
* Reported Aug 11 12:00 am — Aug 26 12:00 am, 35°40'N, 139°46'E. Weather by CustomWeather, © 2019

Note: Actual official high and low records may vary slightly from our data, if they occured in-between our weather recording intervals... More about our weather records

Advertising

35°40'N, 139°46'E Weather History for the Previous 24 Hours

Scroll right to see more
 ConditionsComfort  
Time TempWeatherWind HumidityBarometerVisibility
12:00 am
Mon, Aug 26
79 °FWarm.3 mph81%29.85 "HgN/A
11:00 pm
Sun, Aug 25
77 °FWarm.2 mph85%29.85 "HgN/A
10:00 pm78 °FWarm.2 mph80%29.86 "HgN/A
9:00 pm79 °FOvercast.7 mph80%29.84 "Hg9 mi
8:00 pm78 °FWarm.6 mph81%29.84 "HgN/A
7:00 pm80 °FWarm.12 mph74%29.83 "HgN/A
6:00 pm81 °FPassing clouds.8 mph72%29.80 "Hg12 mi
5:00 pm82 °FWarm.7 mph63%29.80 "HgN/A
4:00 pm84 °FWarm.7 mph63%29.79 "HgN/A
3:00 pm85 °FPartly sunny.9 mph61%29.79 "Hg12 mi
2:00 pm86 °FWarm.9 mph59%29.79 "HgN/A
1:00 pm86 °FWarm.6 mph57%29.79 "HgN/A
12:00 pm84 °FScattered clouds.5 mph53%29.80 "Hg16 mi
11:00 am82 °FWarm.5 mph64%29.82 "HgN/A
10:00 am80 °FWarm.3 mph66%29.83 "HgN/A
9:00 am78 °FPassing clouds.5 mph76%29.84 "Hg16 mi
8:00 am74 °FMild.5 mph87%29.83 "HgN/A
7:00 am72 °FMild.7 mph97%29.83 "HgN/A
6:00 am70 °FOvercast.5 mph97%29.83 "Hg9 mi
5:00 am70 °FMild.5 mph98%29.82 "HgN/A
4:00 am70 °FMild.6 mph98%29.80 "HgN/A
3:00 am72 °FRain showers. Overcast.6 mph99%29.79 "Hg1 mi
Weather by CustomWeather, © 2019

See weather overview